Location: Tucson
(32.2217°N, 110.9265°W)
Time: 07:52:22
(UTC-07:00)

Transit 2A - All Passes

Search period start: 25 October 2021 00:00
Search period end: 04 November 2021 00:00
Orbit: 593 x 965 km, 66.7° (Epoch: 24 October)

Date Brightness Start Highest point End Pass type
(mag) Time Alt. Az. Time Alt. Az. Time Alt. Az.
25 Oct - 09:02:25 10° S 09:07:06 50° ESE 09:12:19 10° NE daylight
25 Oct - 10:47:10 10° W 10:50:41 18° NW 10:54:27 10° N daylight
25 Oct - 17:53:54 10° N 17:58:39 21° NE 18:03:22 10° E visible
25 Oct - 19:36:03 10° NNW 19:42:20 61° WSW 19:48:26 10° S visible
26 Oct - 08:28:47 10° S 08:33:03 31° ESE 08:37:45 10° NE daylight
26 Oct - 10:11:59 10° WSW 10:16:13 27° NW 10:20:51 10° N daylight
26 Oct - 17:20:33 10° NNE 17:24:08 15° NE 17:27:42 10° E daylight
26 Oct - 19:01:45 10° NNW 19:08:10 88° WSW 19:14:24 10° SSE visible
26 Oct - 20:49:13 10° W 20:50:29 11° W 20:51:46 10° WSW visible
27 Oct - 07:55:33 10° SSE 07:59:04 20° ESE 08:02:51 10° ENE daylight
27 Oct - 09:37:09 10° SW 09:41:49 39° WNW 09:47:00 10° N daylight
27 Oct - 16:48:14 10° NNE 16:49:31 11° NE 16:50:48 10° ENE daylight
27 Oct - 18:27:34 10° NNW 18:33:56 65° ENE 18:40:08 10° SE visible
27 Oct - 20:12:38 10° WNW 20:16:33 17° WSW 20:20:25 10° SW visible
28 Oct - 07:23:14 10° SE 07:25:09 12° E 07:27:07 10° ENE daylight
28 Oct - 09:02:38 10° SW 09:07:30 61° WNW 09:13:00 10° NNE daylight
28 Oct - 17:53:32 10° NNW 17:59:38 45° ENE 18:05:36 10° SE visible
28 Oct - 19:37:28 10° NW 19:42:34 26° WSW 19:47:34 10° SSW visible
29 Oct - 08:28:21 10° SSW 08:33:17 87° ESE 08:38:49 10° NNE daylight
29 Oct - 10:15:26 10° WNW 10:17:23 12° NW 10:19:25 10° NNW daylight
29 Oct - 17:19:38 10° N 17:25:16 32° ENE 17:30:48 10° ESE daylight
29 Oct - 19:02:43 10° NW 19:08:33 38° WSW 19:14:11 10° S visible
30 Oct - 07:54:22 10° S 07:59:08 55° ESE 08:04:31 10° NE daylight
30 Oct - 09:39:25 10° W 09:42:49 17° NW 09:46:28 10° N daylight
30 Oct - 16:45:54 10° N 16:50:50 23° NE 16:55:42 10° ESE daylight
30 Oct - 18:28:13 10° NW 18:34:27 57° WSW 18:40:28 10° S visible
31 Oct - 07:20:39 10° S 07:25:05 34° ESE 07:29:59 10° NE daylight
31 Oct - 09:04:08 10° WSW 09:08:20 25° NW 09:12:55 10° N daylight
31 Oct - 16:12:27 10° NNE 16:16:19 16° NE 16:20:09 10° E daylight
31 Oct - 17:53:53 10° NNW 18:00:17 82° WSW 18:06:29 10° SSE visible
01 Nov - 06:47:19 10° SSE 06:51:06 22° ESE 06:55:10 10° NE daylight
01 Nov - 08:29:15 10° SW 08:33:56 37° WNW 08:39:06 10° N daylight
01 Nov - 15:39:44 10° NNE 15:41:43 11° NE 15:43:41 10° ENE daylight
01 Nov - 17:19:41 10° NNW 17:26:04 70° ENE 17:32:15 10° SSE daylight
01 Nov - 19:05:03 10° WNW 19:08:37 16° WSW 19:12:08 10° SW visible
02 Nov - 06:14:41 10° SE 06:17:10 14° ESE 06:19:44 10° ENE visible
02 Nov - 07:54:40 10° SW 07:59:35 56° WNW 08:05:07 10° NNE daylight
02 Nov - 16:45:37 10° NNW 16:51:47 48° ENE 16:57:46 10° SE daylight
02 Nov - 18:29:44 10° NW 18:34:39 24° WSW 18:39:26 10° SSW visible
03 Nov - 07:20:22 10° SSW 07:25:21 86° WNW 07:30:59 10° NNE daylight
03 Nov - 09:07:54 10° WNW 09:09:33 11° NW 09:11:13 10° NNW daylight
03 Nov - 16:11:41 10° N 16:17:25 34° ENE 16:23:02 10° ESE daylight
03 Nov - 17:54:56 10° NW 18:00:37 35° WSW 18:06:09 10° S visible
